TimeEDT,TemperatureF,Dew PointF,Humidity,Sea Level PressureIn,VisibilityMPH,Wind Direction,Wind SpeedMPH,Gust SpeedMPH,PrecipitationIn,Events,Conditions,WindDirDegrees,DateUTC
12:55 AM,73.9,66.9,79,29.83,10.0,South,13.8,-,N/A,,Scattered Clouds,190,2013-08-07 04:55:00
1:02 AM,73.4,66.2,78,29.84,10.0,South,15.0,25.3,N/A,,Mostly Cloudy,190,2013-08-07 05:02:00
1:12 AM,73.4,66.2,78,29.84,10.0,South,15.0,-,N/A,,Mostly Cloudy,180,2013-08-07 05:12:00
1:55 AM,72.0,66.9,84,29.82,10.0,SSW,15.0,-,0.04,,Overcast,200,2013-08-07 05:55:00
2:55 AM,72.0,66.9,84,29.82,10.0,SSW,15.0,-,N/A,,Partly Cloudy,200,2013-08-07 06:55:00
3:55 AM,72.0,66.9,84,29.82,9.0,SSW,15.0,-,N/A,,Scattered Clouds,210,2013-08-07 07:55:00
4:07 AM,71.6,66.2,83,29.82,9.0,SSW,11.5,-,N/A,,Mostly Cloudy,210,2013-08-07 08:07:00
4:23 AM,71.6,66.2,83,29.82,8.0,SW,12.7,-,N/A,,Mostly Cloudy,220,2013-08-07 08:23:00
4:46 AM,69.8,60.8,73,29.86,10.0,NW,17.3,31.1,0.00,Rain,Light Rain,320,2013-08-07 08:46:00
4:55 AM,68.0,60.1,76,29.84,10.0,NNW,15.0,-,0.00,Rain,Light Rain,330,2013-08-07 08:55:00
5:02 AM,66.2,59.0,78,29.84,10.0,NNW,11.5,-,0.01,Rain,Light Rain,340,2013-08-07 09:02:00
5:39 AM,64.4,60.8,88,29.83,6.0,Calm,Calm,-,0.07,Rain-Thunderstorm,Thunderstorms and Rain,0,2013-08-07 09:39:00
5:55 AM,64.0,60.1,87,29.77,3.0,ESE,11.5,-,0.15,Rain-Thunderstorm,Thunderstorms and Rain,120,2013-08-07 09:55:00
6:55 AM,64.9,62.1,90,29.85,10.0,SSW,3.5,-,0.01,Rain-Thunderstorm,Light Thunderstorms and Rain,210,2013-08-07 10:55:00
7:44 AM,64.4,60.8,88,29.80,10.0,South,10.4,-,0.07,,Scattered Clouds,170,2013-08-07 11:44:00
7:55 AM,64.9,61.0,87,29.78,10.0,SSE,6.9,-,0.07,,Mostly Cloudy,150,2013-08-07 11:55:00
8:55 AM,66.9,63.0,87,29.81,10.0,SSE,5.8,-,N/A,,Overcast,160,2013-08-07 12:55:00
9:55 AM,68.0,63.0,84,29.82,10.0,South,5.8,-,N/A,,Overcast,180,2013-08-07 13:55:00
10:55 AM,70.0,64.9,84,29.83,10.0,Variable,3.5,-,N/A,,Overcast,0,2013-08-07 14:55:00
11:55 AM,73.9,64.9,73,29.83,10.0,South,12.7,-,N/A,,Mostly Cloudy,180,2013-08-07 15:55:00
12:43 PM,75.2,66.2,73,29.85,10.0,SSW,9.2,-,N/A,,Mostly Cloudy,200,2013-08-07 16:43:00
12:55 PM,75.0,66.0,73,29.84,10.0,SSW,11.5,20.7,N/A,,Mostly Cloudy,210,2013-08-07 16:55:00
1:52 PM,77.0,68.0,74,29.85,10.0,SSW,15.0,-,N/A,,Mostly Cloudy,200,2013-08-07 17:52:00
1:55 PM,77.0,68.0,74,29.84,10.0,SSW,16.1,-,N/A,,Mostly Cloudy,210,2013-08-07 17:55:00
2:55 PM,75.9,68.0,76,29.84,10.0,WSW,11.5,-,N/A,,Mostly Cloudy,240,2013-08-07 18:55:00
3:55 PM,75.9,68.0,76,29.85,10.0,West,10.4,-,N/A,,Mostly Cloudy,270,2013-08-07 19:55:00
4:31 PM,75.2,68.0,78,29.86,10.0,WNW,6.9,-,N/A,,Mostly Cloudy,300,2013-08-07 20:31:00
4:37 PM,77.0,68.0,74,29.86,10.0,WNW,8.1,-,N/A,,Mostly Cloudy,300,2013-08-07 20:37:00
4:48 PM,77.0,66.2,69,29.86,10.0,WNW,9.2,-,N/A,,Mostly Cloudy,300,2013-08-07 20:48:00
4:55 PM,77.0,66.9,71,29.86,10.0,WNW,9.2,-,N/A,,Mostly Cloudy,300,2013-08-07 20:55:00
5:55 PM,77.0,64.0,64,29.86,10.0,WNW,10.4,-,N/A,,Scattered Clouds,300,2013-08-07 21:55:00
6:55 PM,77.0,62.1,60,29.87,10.0,NW,12.7,-,N/A,,Scattered Clouds,320,2013-08-07 22:55:00
7:55 PM,75.0,61.0,62,29.89,10.0,North,4.6,-,N/A,,Scattered Clouds,10,2013-08-07 23:55:00
8:55 PM,72.0,61.0,68,29.90,10.0,North,4.6,-,N/A,,Scattered Clouds,360,2013-08-08 00:55:00
9:55 PM,69.1,62.1,78,29.92,10.0,NW,4.6,-,N/A,,Scattered Clouds,320,2013-08-08 01:55:00
10:55 PM,68.0,61.0,78,29.95,10.0,North,6.9,-,N/A,,Scattered Clouds,350,2013-08-08 02:55:00
11:55 PM,66.9,59.0,76,29.96,10.0,North,6.9,-,N/A,,Clear,360,2013-08-08 03:55:00